AirNav   ATP
 
 1010 users online  

33NJ Centra State Medical Center Heliport
Freehold, New Jersey, USA

GOING TO FREEHOLD?


FAA INFORMATION EFFECTIVE 29 MARCH 2018

Location

FAA Identifier: 33NJ
Lat/Long: 40-14-12.3800N / 074-18-39.5100W
40-14.206333N / 074-18.658500W
40.2367722 / -74.3109750
(estimated)
Elevation: 169 ft. / 52 m (estimated)
Variation: 12W (1985)
From city: 2 miles W of FREEHOLD, NJ
Time zone: UTC -4 (UTC -5 during Standard Time)
Zip code: 07728

Heliport Operations

Heliport use: Private use. Permission required prior to landing
Activation date: 07/1982
Control tower: no
ARTCC: NEW YORK CENTER
FSS: MILLVILLE FLIGHT SERVICE STATION
Attendance: UNATNDD
Wind indicator: yes
Segmented circle: no

Heliport Communications

WX AWOS-3PT at BLM (9 nm E): 121.625 (732-938-3330)
WX AWOS-AV at N12 (12 nm SE): 122.8 (732-363-6471)
WX AWOS-3PT at MJX (19 nm S): 119.875 (732-797-2542)

Nearby radio navigation aids

VOR radial/distance  VOR name  Freq  Var
COLr248/8.3COLTS NECK VOR/DME115.4011W
RBVr086/8.7ROBBINSVILLE VORTAC113.8010W
GXUr056/18.9MC GUIRE VORTAC110.6012W
CYNr022/25.8COYLE VORTAC113.4010W
ARDr102/27.3YARDLEY VOR/DME108.2010W
SBJr147/28.6SOLBERG VOR/DME112.9010W
CRIr231/29.5CANARSIE VOR/DME112.3011W
PNEr084/(33.4)NORTH PHILADELPHIA VOR112.0010W
JFKr238/34.2KENNEDY VOR/DME115.9012W
TEBr208/38.4TETERBORO VOR/DME108.4011W
LGAr224/38.5LA GUARDIA VOR/DME113.1012W

 
NDB name  Hdg/Dist  Freq  Var  ID
LAKEHURST017/11.639611WNEL -. . .-..
BRIDGE237/27.941412WOGY --- --. -.--
CHATHAM183/30.725413WCAT -.-. .- -

Heliport Services

Runway Information

Helipad H1

Dimensions: 60 x 60 ft. / 18 x 18 m
Surface: asphalt
Latitude: 40-14.206333N
Longitude: 074-18.658500W
Elevation: 169.0 ft.
Traffic pattern: leftleft

Heliport Ownership and Management from official FAA records

Ownership: Privately-owned
Owner: CENTRA STATE MEDICAL CENTER
RT 537
FREEHOLD, NJ 07728
Phone (908) 431-2000
Manager: ROB SWANTEK
901 W. MAIN STREET
FREEHOLD, NJ 07728
Phone (732) 294-2837
DIRECTOR OF SECURITY

Instrument Procedures

There are no published instrument procedures at 33NJ.

Some nearby airports with instrument procedures:

3N6 - Old Bridge Airport (6 nm N)
KBLM - Monmouth Executive Airport (9 nm E)
N12 - Lakewood Airport (12 nm SE)
KNEL - Lakehurst Maxfield Field Airport (12 nm S)
N87 - Trenton-Robbinsville Airport (13 nm W)
KWRI - McGuire Field (Joint Base Mc Guire Dix Lakehurst) Airport (18 nm SW)
KMJX - Ocean County Airport (19 nm S)
39N - Princeton Airport (19 nm NW)
 
Loc | Ops | Rwys | IFR | FBO | Links
Com | Nav | Svcs | Stats | Notes

AirNav Hotels Sweepstakes
 
Area around 33NJ (Centra State Medical Center Heliport)
 
Road maps at: MapQuest Bing Google
 
Aerial photo
No photo
 
Sectional chart

 
Airport distance calculator
Flying to Centra State Medical Center Heliport? Find the distance to fly.

From to 33NJ

Sunrise and sunset
Times for 20-Apr-2018
 Local
(UTC-4)
 Zulu
(UTC)
Morning civil twilight05:4409:44
Sunrise06:1310:13
Sunset19:4023:40
Evening civil twilight20:0800:08

Current date and time
Zulu (UTC)  20-Apr-2018 22:38:10
Local (UTC-4)  20-Apr-2018 18:38:10
 
METAR
KBLM 
10nm SE 
AWOS-3 121.625 732-938-3330
202156Z AUTO 28016G22KT 10SM CLR 11/M05 A3024 RMK AO2 SLP244 T01061050
KNEL 
13nm S 
202200Z AUTO VRB06G19KT 10SM CLR 11/M05 A3023 RMK AO2 SLP236 T01061050 PNO
KWRI 
18nm SW 
202156Z AUTO 33009KT 10SM FEW065 12/M03 A3022 RMK AO2 SLP234 T01151034 $
KMJX 
19nm S 
AWOS-3 119.875 732-244-4450
202156Z AUTO 32011G20KT 10SM CLR 11/M04 A3024 RMK AO2 SLP245 T01111039
TAF
KWRI 
18nm SW 
202045Z 2020/2124 32012KT 9999 SCT050 QNH3018INS TEMPO 2020/2023 32015G25KT BECMG 2023/2024 33009KT 9999 FEW200 QNH3029INS TX14/2118Z TN02/2110Z
NOTAMs
Click for the latest NOTAMs
NOTAMs are issued by the DoD/FAA and will open in a separate window not controlled by AirNav.

 

 
 

Would you like to see your business listed on this page?

 If your business provides an interesting product or service to pilots, flight crews, aircraft, or users of the Centra State Medical Center Heliport, you should consider listing it here.  To start the listing process, click on the button below
 
Add a business
 

Other Pages about Centra State Medical Center Heliport

Update a link
 
Copyright © AirNav, LLC. All rights reserved. Privacy Policy  Contact